﻿測定場所 (Monitoring sites),日付 (Measurement date),時間 (Measurement time),線量率 最大値 (max) μGy/h,線量率 最小値 (min) μGy/h,線量率 平均値 (average) μGy/h,
江戸川 (Edogawa),2016-04-24,23:01～24:00,0.0604,0.0539,0.0564,
江戸川 (Edogawa),2016-04-24,22:01～23:00,0.0592,0.0531,0.0563,
江戸川 (Edogawa),2016-04-24,21:01～22:00,0.0593,0.0536,0.0564,
江戸川 (Edogawa),2016-04-24,20:01～21:00,0.0590,0.0538,0.0563,
江戸川 (Edogawa),2016-04-24,19:01～20:00,0.0596,0.0535,0.0563,
江戸川 (Edogawa),2016-04-24,18:01～19:00,0.0593,0.0532,0.0564,
江戸川 (Edogawa),2016-04-24,17:01～18:00,0.0592,0.0531,0.0561,
江戸川 (Edogawa),2016-04-24,16:01～17:00,0.0589,0.0522,0.0564,
江戸川 (Edogawa),2016-04-24,15:01～16:00,0.0589,0.0520,0.0556,
江戸川 (Edogawa),2016-04-24,14:01～15:00,0.0598,0.0522,0.0561,
江戸川 (Edogawa),2016-04-24,13:01～14:00,0.0606,0.0521,0.0564,
江戸川 (Edogawa),2016-04-24,12:01～13:00,0.0604,0.0533,0.0561,
江戸川 (Edogawa),2016-04-24,11:01～12:00,0.0599,0.0524,0.0561,
江戸川 (Edogawa),2016-04-24,10:01～11:00,0.0614,0.0534,0.0571,
江戸川 (Edogawa),2016-04-24,09:01～10:00,0.0640,0.0559,0.0590,
江戸川 (Edogawa),2016-04-24,08:01～09:00,0.0631,0.0567,0.0599,
江戸川 (Edogawa),2016-04-24,07:01～08:00,0.0686,0.0586,0.0622,
江戸川 (Edogawa),2016-04-24,06:01～07:00,0.0725,0.0610,0.0671,
江戸川 (Edogawa),2016-04-24,05:01～06:00,0.0730,0.0566,0.0661,
江戸川 (Edogawa),2016-04-24,04:01～05:00,0.0628,0.0553,0.0592,
江戸川 (Edogawa),2016-04-24,03:01～04:00,0.0672,0.0581,0.0623,
江戸川 (Edogawa),2016-04-24,02:01～03:00,0.0683,0.0609,0.0648,
江戸川 (Edogawa),2016-04-24,01:01～02:00,0.0680,0.0583,0.0645,
江戸川 (Edogawa),2016-04-24,00:01～01:00,0.0644,0.0564,0.0605,
江戸川 (Edogawa),2016-04-23,23:01～24:00,0.0653,0.0570,0.0603,
江戸川 (Edogawa),2016-04-23,22:01～23:00,0.0631,0.0542,0.0591,
江戸川 (Edogawa),2016-04-23,21:01～22:00,0.0614,0.0542,0.0575,
江戸川 (Edogawa),2016-04-23,20:01～21:00,0.0594,0.0543,0.0570,
江戸川 (Edogawa),2016-04-23,19:01～20:00,0.0600,0.0536,0.0573,
江戸川 (Edogawa),2016-04-23,18:01～19:00,0.0611,0.0520,0.0573,
江戸川 (Edogawa),2016-04-23,17:01～18:00,0.0611,0.0544,0.0573,
江戸川 (Edogawa),2016-04-23,16:01～17:00,0.0617,0.0542,0.0576,
江戸川 (Edogawa),2016-04-23,15:01～16:00,0.0600,0.0546,0.0571,
江戸川 (Edogawa),2016-04-23,14:01～15:00,0.0606,0.0524,0.0572,
江戸川 (Edogawa),2016-04-23,13:01～14:00,0.0604,0.0530,0.0574,
江戸川 (Edogawa),2016-04-23,12:01～13:00,0.0611,0.0544,0.0573,
江戸川 (Edogawa),2016-04-23,11:01～12:00,0.0592,0.0527,0.0564,
江戸川 (Edogawa),2016-04-23,10:01～11:00,0.0597,0.0538,0.0565,
江戸川 (Edogawa),2016-04-23,09:01～10:00,0.0635,0.0541,0.0571,
江戸川 (Edogawa),2016-04-23,08:01～09:00,0.0599,0.0539,0.0570,
江戸川 (Edogawa),2016-04-23,07:01～08:00,0.0594,0.0526,0.0565,
江戸川 (Edogawa),2016-04-23,06:01～07:00,0.0585,0.0531,0.0563,
江戸川 (Edogawa),2016-04-23,05:01～06:00,0.0588,0.0537,0.0564,
江戸川 (Edogawa),2016-04-23,04:01～05:00,0.0590,0.0528,0.0563,
江戸川 (Edogawa),2016-04-23,03:01～04:00,0.0593,0.0530,0.0561,
江戸川 (Edogawa),2016-04-23,02:01～03:00,0.0598,0.0533,0.0564,
江戸川 (Edogawa),2016-04-23,01:01～02:00,0.0601,0.0518,0.0566,
江戸川 (Edogawa),2016-04-23,00:01～01:00,0.0604,0.0541,0.0568,
江戸川 (Edogawa),2016-04-22,23:01～24:00,0.0596,0.0527,0.0563,
江戸川 (Edogawa),2016-04-22,22:01～23:00,0.0589,0.0526,0.0567,
江戸川 (Edogawa),2016-04-22,21:01～22:00,0.0594,0.0536,0.0567,
江戸川 (Edogawa),2016-04-22,20:01～21:00,0.0611,0.0541,0.0567,
江戸川 (Edogawa),2016-04-22,19:01～20:00,0.0604,0.0521,0.0563,
江戸川 (Edogawa),2016-04-22,18:01～19:00,0.0597,0.0537,0.0565,
江戸川 (Edogawa),2016-04-22,17:01～18:00,0.0595,0.0541,0.0567,
江戸川 (Edogawa),2016-04-22,16:01～17:00,0.0600,0.0544,0.0572,
江戸川 (Edogawa),2016-04-22,15:01～16:00,0.0608,0.0538,0.0571,
江戸川 (Edogawa),2016-04-22,14:01～15:00,0.0606,0.0540,0.0571,
江戸川 (Edogawa),2016-04-22,13:01～14:00,0.0602,0.0542,0.0570,
江戸川 (Edogawa),2016-04-22,12:01～13:00,0.0596,0.0539,0.0566,
江戸川 (Edogawa),2016-04-22,11:01～12:00,0.0591,0.0540,0.0566,
江戸川 (Edogawa),2016-04-22,10:01～11:00,0.0610,0.0530,0.0569,
江戸川 (Edogawa),2016-04-22,09:01～10:00,0.0592,0.0522,0.0566,
江戸川 (Edogawa),2016-04-22,08:01～09:00,0.0599,0.0539,0.0568,
江戸川 (Edogawa),2016-04-22,07:01～08:00,0.0587,0.0532,0.0558,
江戸川 (Edogawa),2016-04-22,06:01～07:00,0.0593,0.0525,0.0556,
江戸川 (Edogawa),2016-04-22,05:01～06:00,0.0586,0.0526,0.0556,
江戸川 (Edogawa),2016-04-22,04:01～05:00,0.0605,0.0507,0.0555,
江戸川 (Edogawa),2016-04-22,03:01～04:00,0.0598,0.0533,0.0557,
江戸川 (Edogawa),2016-04-22,02:01～03:00,0.0583,0.0517,0.0559,
江戸川 (Edogawa),2016-04-22,01:01～02:00,0.0594,0.0540,0.0570,
江戸川 (Edogawa),2016-04-22,00:01～01:00,0.0629,0.0552,0.0589,
江戸川 (Edogawa),2016-04-21,23:01～24:00,0.0662,0.0580,0.0612,
江戸川 (Edogawa),2016-04-21,22:01～23:00,0.0636,0.0560,0.0602,
江戸川 (Edogawa),2016-04-21,21:01～22:00,0.0623,0.0547,0.0588,
江戸川 (Edogawa),2016-04-21,20:01～21:00,0.0643,0.0572,0.0603,
江戸川 (Edogawa),2016-04-21,19:01～20:00,0.0668,0.0583,0.0628,
江戸川 (Edogawa),2016-04-21,18:01～19:00,0.0678,0.0582,0.0628,
江戸川 (Edogawa),2016-04-21,17:01～18:00,0.0662,0.0562,0.0611,
江戸川 (Edogawa),2016-04-21,16:01～17:00,0.0625,0.0572,0.0598,
江戸川 (Edogawa),2016-04-21,15:01～16:00,0.0635,0.0568,0.0602,
江戸川 (Edogawa),2016-04-21,14:01～15:00,0.0641,0.0558,0.0598,
江戸川 (Edogawa),2016-04-21,13:01～14:00,0.0615,0.0552,0.0577,
江戸川 (Edogawa),2016-04-21,12:01～13:00,0.0628,0.0554,0.0579,
江戸川 (Edogawa),2016-04-21,11:01～12:00,0.0609,0.0542,0.0576,
江戸川 (Edogawa),2016-04-21,10:01～11:00,0.0605,0.0546,0.0576,
江戸川 (Edogawa),2016-04-21,09:01～10:00,0.0605,0.0543,0.0574,
江戸川 (Edogawa),2016-04-21,08:01～09:00,0.0602,0.0551,0.0578,
江戸川 (Edogawa),2016-04-21,07:01～08:00,0.0627,0.0540,0.0577,
江戸川 (Edogawa),2016-04-21,06:01～07:00,0.0619,0.0545,0.0577,
江戸川 (Edogawa),2016-04-21,05:01～06:00,0.0607,0.0543,0.0577,
江戸川 (Edogawa),2016-04-21,04:01～05:00,0.0621,0.0538,0.0578,
江戸川 (Edogawa),2016-04-21,03:01～04:00,0.0615,0.0542,0.0576,
江戸川 (Edogawa),2016-04-21,02:01～03:00,0.0608,0.0538,0.0571,
江戸川 (Edogawa),2016-04-21,01:01～02:00,0.0611,0.0543,0.0578,
江戸川 (Edogawa),2016-04-21,00:01～01:00,0.0604,0.0542,0.0574,
江戸川 (Edogawa),2016-04-20,23:01～24:00,0.0611,0.0542,0.0576,
江戸川 (Edogawa),2016-04-20,22:01～23:00,0.0602,0.0535,0.0571,
江戸川 (Edogawa),2016-04-20,21:01～22:00,0.0601,0.0543,0.0572,
江戸川 (Edogawa),2016-04-20,20:01～21:00,0.0613,0.0537,0.0575,
江戸川 (Edogawa),2016-04-20,19:01～20:00,0.0613,0.0540,0.0573,
江戸川 (Edogawa),2016-04-20,18:01～19:00,0.0604,0.0549,0.0575,
江戸川 (Edogawa),2016-04-20,17:01～18:00,0.0617,0.0540,0.0574,
江戸川 (Edogawa),2016-04-20,16:01～17:00,0.0613,0.0533,0.0577,
江戸川 (Edogawa),2016-04-20,15:01～16:00,0.0620,0.0539,0.0577,
江戸川 (Edogawa),2016-04-20,14:01～15:00,0.0607,0.0550,0.0579,
江戸川 (Edogawa),2016-04-20,13:01～14:00,0.0614,0.0543,0.0576,
江戸川 (Edogawa),2016-04-20,12:01～13:00,0.0606,0.0545,0.0577,
江戸川 (Edogawa),2016-04-20,11:01～12:00,0.0606,0.0549,0.0573,
江戸川 (Edogawa),2016-04-20,10:01～11:00,0.0607,0.0545,0.0578,
江戸川 (Edogawa),2016-04-20,09:01～10:00,0.0610,0.0556,0.0581,
江戸川 (Edogawa),2016-04-20,08:01～09:00,0.0602,0.0539,0.0572,
江戸川 (Edogawa),2016-04-20,07:01～08:00,0.0595,0.0533,0.0568,
江戸川 (Edogawa),2016-04-20,06:01～07:00,0.0609,0.0528,0.0564,
江戸川 (Edogawa),2016-04-20,05:01～06:00,0.0606,0.0521,0.0563,
江戸川 (Edogawa),2016-04-20,04:01～05:00,0.0600,0.0530,0.0569,
江戸川 (Edogawa),2016-04-20,03:01～04:00,0.0603,0.0533,0.0568,
江戸川 (Edogawa),2016-04-20,02:01～03:00,0.0604,0.0537,0.0566,
江戸川 (Edogawa),2016-04-20,01:01～02:00,0.0607,0.0538,0.0567,
江戸川 (Edogawa),2016-04-20,00:01～01:00,0.0604,0.0536,0.0570,
江戸川 (Edogawa),2016-04-19,23:01～24:00,0.0609,0.0540,0.0569,
江戸川 (Edogawa),2016-04-19,22:01～23:00,0.0604,0.0530,0.0567,
江戸川 (Edogawa),2016-04-19,21:01～22:00,0.0606,0.0534,0.0565,
江戸川 (Edogawa),2016-04-19,20:01～21:00,0.0595,0.0523,0.0566,
江戸川 (Edogawa),2016-04-19,19:01～20:00,0.0617,0.0539,0.0572,
江戸川 (Edogawa),2016-04-19,18:01～19:00,0.0611,0.0535,0.0572,
江戸川 (Edogawa),2016-04-19,17:01～18:00,0.0600,0.0526,0.0573,
江戸川 (Edogawa),2016-04-19,16:01～17:00,0.0597,0.0549,0.0571,
江戸川 (Edogawa),2016-04-19,15:01～16:00,0.0593,0.0532,0.0563,
江戸川 (Edogawa),2016-04-19,14:01～15:00,0.0604,0.0537,0.0571,
江戸川 (Edogawa),2016-04-19,13:01～14:00,0.0606,0.0539,0.0567,
江戸川 (Edogawa),2016-04-19,12:01～13:00,0.0608,0.0528,0.0568,
江戸川 (Edogawa),2016-04-19,11:01～12:00,0.0620,0.0533,0.0571,
江戸川 (Edogawa),2016-04-19,10:01～11:00,0.0607,0.0536,0.0569,
江戸川 (Edogawa),2016-04-19,09:01～10:00,0.0612,0.0533,0.0568,
江戸川 (Edogawa),2016-04-19,08:01～09:00,0.0595,0.0539,0.0570,
江戸川 (Edogawa),2016-04-19,07:01～08:00,0.0597,0.0526,0.0567,
江戸川 (Edogawa),2016-04-19,06:01～07:00,0.0591,0.0526,0.0560,
江戸川 (Edogawa),2016-04-19,05:01～06:00,0.0598,0.0524,0.0560,
江戸川 (Edogawa),2016-04-19,04:01～05:00,0.0593,0.0527,0.0564,
江戸川 (Edogawa),2016-04-19,03:01～04:00,0.0597,0.0532,0.0564,
江戸川 (Edogawa),2016-04-19,02:01～03:00,0.0600,0.0523,0.0563,
江戸川 (Edogawa),2016-04-19,01:01～02:00,0.0602,0.0518,0.0561,
江戸川 (Edogawa),2016-04-19,00:01～01:00,0.0588,0.0524,0.0561,
江戸川 (Edogawa),2016-04-18,23:01～24:00,0.0589,0.0542,0.0565,
江戸川 (Edogawa),2016-04-18,22:01～23:00,0.0617,0.0549,0.0582,
江戸川 (Edogawa),2016-04-18,21:01～22:00,0.0648,0.0566,0.0610,
江戸川 (Edogawa),2016-04-18,20:01～21:00,0.0669,0.0597,0.0635,
江戸川 (Edogawa),2016-04-18,19:01～20:00,0.0700,0.0576,0.0644,
江戸川 (Edogawa),2016-04-18,18:01～19:00,0.0677,0.0563,0.0622,
江戸川 (Edogawa),2016-04-18,17:01～18:00,0.0633,0.0544,0.0576,
江戸川 (Edogawa),2016-04-18,16:01～17:00,0.0610,0.0547,0.0578,
江戸川 (Edogawa),2016-04-18,15:01～16:00,0.0628,0.0541,0.0579,
江戸川 (Edogawa),2016-04-18,14:01～15:00,0.0615,0.0537,0.0571,
江戸川 (Edogawa),2016-04-18,13:01～14:00,0.0595,0.0544,0.0569,
江戸川 (Edogawa),2016-04-18,12:01～13:00,0.0598,0.0544,0.0568,
江戸川 (Edogawa),2016-04-18,11:01～12:00,0.0599,0.0530,0.0567,
江戸川 (Edogawa),2016-04-18,10:01～11:00,0.0609,0.0513,0.0566,
江戸川 (Edogawa),2016-04-18,09:01～10:00,0.0613,0.0541,0.0573,
江戸川 (Edogawa),2016-04-18,08:01～09:00,0.0611,0.0535,0.0572,
江戸川 (Edogawa),2016-04-18,07:01～08:00,0.0616,0.0521,0.0570,
江戸川 (Edogawa),2016-04-18,06:01～07:00,0.0605,0.0531,0.0564,
江戸川 (Edogawa),2016-04-18,05:01～06:00,0.0594,0.0526,0.0558,
江戸川 (Edogawa),2016-04-18,04:01～05:00,0.0594,0.0534,0.0560,
江戸川 (Edogawa),2016-04-18,03:01～04:00,0.0587,0.0510,0.0559,
江戸川 (Edogawa),2016-04-18,02:01～03:00,0.0595,0.0528,0.0560,
江戸川 (Edogawa),2016-04-18,01:01～02:00,0.0601,0.0503,0.0557,
江戸川 (Edogawa),2016-04-18,00:01～01:00,0.0597,0.0527,0.0563,
